1531400401.04,32450,20.44,73986.0,10.37,4.07,4.37,0,*4B
1531400402.25,32451,20.38,73984.8,10.39,4.31,4.53,0,*43
1531400403.49,32452,20.38,73984.5,10.37,4.05,4.37,0,*4B
1531400404.73,32453,20.38,73984.5,10.37,3.93,4.31,0,*44
1531400405.95,32454,20.38,73984.8,10.37,4.15,4.41,0,*4D
1531400407.21,32455,20.38,73984.5,10.37,3.71,3.97,0,*45
1531400408.41,32456,20.38,73984.3,10.37,4.19,4.49,0,*4B
1531400409.62,32457,20.38,73984.0,10.37,3.85,4.07,0,*42
1531400410.85,32458,20.44,73990.5,10.33,3.41,3.67,0,*40
1531400412.08,32459,20.38,73984.5,10.35,3.75,4.15,0,*42
1531400413.26,32460,20.38,73986.0,10.33,4.15,4.45,0,*4A
1531400414.44,32461,20.38,73986.3,10.33,3.89,4.27,0,*4D
1531400415.67,32462,20.38,73986.0,10.33,3.67,4.05,0,*4E
1531400416.93,32463,20.38,73984.3,10.35,3.67,4.01,0,*4D
1531400418.16,32464,20.38,73986.5,10.33,3.45,3.75,0,*48
1531400419.36,32465,20.44,73986.5,10.33,3.79,4.15,0,*47
1531400420.54,32466,20.38,73984.5,10.33,3.81,4.23,0,*46
1531400421.75,32467,20.44,73988.0,10.33,4.05,4.37,0,*49
1531400422.94,32468,20.44,73988.8,10.33,3.93,4.37,0,*4E
1531400424.14,32469,20.38,73984.8,10.33,3.53,3.93,0,*4A
1531400425.32,32470,20.38,73984.5,10.33,4.27,4.85,0,*46
1531400426.52,32471,20.38,73986.5,10.35,4.49,5.07,0,*42
1531400427.76,32472,20.38,73984.8,10.35,4.37,4.93,0,*44
1531400429.0,32473,20.44,73986.0,10.35,4.37,4.93,0,*45
1531400430.24,32474,20.38,73984.5,10.35,4.15,4.71,0,*4E
1531400431.5,32475,20.38,73984.3,10.35,4.05,4.63,0,*4D
1531400432.73,32476,20.38,73986.8,10.35,4.45,5.05,0,*4B
1531400433.97,32477,20.38,73984.5,10.35,4.27,4.93,0,*40
1531400435.19,32478,20.38,73986.8,10.39,4.07,4.75,0,*49
1531400436.4,32479,20.38,73984.0,10.37,4.49,5.19,0,*47
1531400437.65,32480,20.38,73984.0,10.37,4.37,5.01,0,*41
1531400438.83,32481,20.38,73984.8,10.39,4.27,4.89,0,*4E
1531400440.02,32482,20.44,73986.5,10.39,4.41,5.11,0,*4D
1531400441.21,32483,20.44,73986.5,10.39,4.49,5.11,0,*44
1531400442.44,32484,20.38,73984.8,10.41,4.67,5.37,0,*44
1531400443.67,32485,20.44,73986.5,10.41,4.67,5.33,0,*41
1531400444.87,32486,20.44,73984.5,10.45,4.45,5.15,0,*42
1531400446.08,32487,20.44,73984.8,10.45,4.57,5.37,0,*40
1531400447.28,32488,20.44,73986.3,10.45,4.85,5.63,0,*41
1531400448.49,32489,20.44,73984.8,10.47,4.81,5.55,0,*43
1531400449.72,32490,20.38,73988.0,10.49,4.63,5.29,0,*42
1531400450.95,32491,20.38,73984.0,10.49,4.63,5.29,0,*43
1531400452.16,32492,20.44,73986.5,10.49,4.49,5.19,0,*4B
1531400453.37,32493,20.38,73986.3,10.51,4.59,5.29,0,*41
1531400454.59,32494,20.38,73984.5,10.53,4.67,5.45,0,*43
1531400455.85,32495,20.44,73986.0,10.53,4.63,5.27,0,*42
1531400457.08,32496,20.38,73986.8,10.53,4.63,5.33,0,*44
1531400458.29,32497,20.38,73986.3,10.53,4.57,5.23,0,*43
1531400459.49,32498,20.38,73982.3,10.55,4.49,5.27,0,*41
1531400460.72,32499,20.44,73988.8,10.57,4.59,5.37,0,*42
1531400461.93,32500,20.44,73988.0,10.55,4.59,5.41,0,*40
1531400463.16,32501,20.44,73988.3,10.57,4.67,5.49,0,*46
1531400464.39,32502,20.38,73984.3,10.57,4.59,5.29,0,*4E
1531400465.62,32503,20.38,73984.3,10.57,4.59,5.41,0,*41
1531400466.85,32504,20.44,73988.5,10.61,4.75,5.49,0,*45
1531400468.05,32505,20.38,73982.8,10.61,4.11,4.85,0,*47
1531400469.26,32506,20.44,73986.5,10.61,4.33,5.15,0,*4C
1531400470.46,32507,20.38,73986.8,10.61,4.57,5.37,0,*4F
1531400471.68,32508,20.38,73982.5,10.61,4.63,5.37,0,*47
1531400472.91,32509,20.38,73984.8,10.61,4.53,5.27,0,*44
1531400474.12,32510,20.38,73984.5,10.63,4.31,5.15,0,*4B
1531400475.3,32511,20.38,73986.0,10.67,4.45,5.19,0,*41
1531400476.51,32512,20.38,73984.8,10.63,4.45,5.27,0,*4B
1531400477.7,32513,20.44,73986.3,10.69,4.37,5.19,0,*48
1531400478.91,32514,20.38,73986.0,10.63,4.07,4.75,0,*4D
1531400480.09,32515,20.44,73986.0,10.67,4.45,5.29,0,*46
1531400481.29,32516,20.44,73984.8,10.67,4.37,5.27,0,*4E
1531400482.47,32517,20.38,73986.8,10.67,4.11,4.89,0,*4E
1531400483.64,32518,20.38,73984.5,10.67,4.07,4.81,0,*4E
1531400484.85,32519,20.44,73984.3,10.67,4.07,4.71,0,*40
1531400486.04,32520,20.44,73990.3,10.63,4.19,5.11,0,*46
1531400487.21,32521,20.44,73986.8,10.67,4.11,4.89,0,*4B
1531400488.4,32522,20.38,73984.3,10.67,4.23,5.07,0,*4E
1531400489.6,32523,20.38,73982.8,10.67,4.23,5.05,0,*4D
1531400490.8,32524,20.44,73984.8,10.67,3.85,4.59,0,*49
1531400491.97,32525,20.38,73986.3,10.67,4.07,4.81,0,*40
1531400493.18,32526,20.44,73986.3,10.63,4.23,5.05,0,*4C
1531400494.38,32527,20.38,73984.5,10.67,4.01,4.81,0,*44
1531400495.58,32528,20.44,73986.0,10.67,3.85,4.67,0,*48
1531400496.75,32529,20.44,73984.0,10.67,3.63,4.45,0,*41
1531400497.94,32530,20.38,73984.0,10.67,4.27,5.07,0,*49
1531400499.14,32531,20.44,73986.3,10.69,3.71,4.49,0,*49
1531400500.34,32532,20.38,73986.8,10.69,3.71,4.49,0,*4A
1531400501.52,32533,20.44,73984.0,10.69,3.59,4.27,0,*49
1531400502.72,32534,20.44,73984.8,10.67,3.79,4.49,0,*4A
1531400503.92,32535,20.44,73988.8,10.63,3.49,4.33,0,*41
1531400505.15,32536,20.44,73984.5,10.63,3.53,4.31,0,*4B
1531400506.38,32537,20.44,73984.0,10.63,3.53,4.31,0,*4A
1531400507.59,32538,20.38,73986.0,10.63,3.53,4.41,0,*42
1531400508.8,32539,20.38,73984.0,10.63,3.75,4.57,0,*40
1531400510.0,32540,20.38,73980.8,10.67,3.89,4.59,0,*47
1531400511.24,32541,20.38,73986.0,10.63,3.97,4.75,0,*43
1531400512.45,32542,20.38,73986.5,10.63,4.31,5.11,0,*48
1531400513.66,32543,20.44,73984.0,10.63,4.19,4.97,0,*4C
1531400514.9,32544,20.44,73984.5,10.63,4.05,4.79,0,*46
1531400516.14,32545,20.38,73984.0,10.63,4.05,4.63,0,*4C
1531400517.33,32546,20.38,73986.0,10.63,4.41,5.11,0,*4B
1531400518.52,32547,20.44,73984.0,10.69,4.37,5.19,0,*49
1531400519.75,32548,20.44,73988.0,10.63,3.97,4.67,0,*49
1531400520.96,32549,20.38,73986.5,10.67,4.07,4.71,0,*45
1531400522.17,32550,20.44,73986.8,10.63,4.11,4.79,0,*46
1531400523.38,32551,20.44,73984.8,10.67,4.11,4.79,0,*43
1531400524.58,32552,20.44,73986.0,10.67,4.27,4.97,0,*45
1531400525.76,32553,20.38,73984.3,10.67,4.15,4.89,0,*4A
1531400526.93,32554,20.38,73984.3,10.67,4.15,4.81,0,*45
1531400528.14,32555,20.44,73984.0,10.67,4.27,4.97,0,*42
1531400529.35,32556,20.38,73986.8,10.67,4.07,4.71,0,*4B
1531400530.56,32557,20.44,73986.3,10.63,3.79,4.53,0,*40
1531400531.77,32558,20.44,73984.5,10.69,3.93,4.63,0,*42
1531400532.98,32559,20.38,73986.0,10.63,3.37,3.93,0,*4F
1531400534.21,32560,20.44,73986.0,10.63,2.77,3.49,0,*47
1531400535.42,32561,20.38,73984.0,10.63,2.65,3.37,0,*4C
1531400536.62,32562,20.44,73986.0,10.63,3.49,4.11,0,*43
1531400537.85,32563,20.38,73984.3,10.61,3.71,4.41,0,*4E
1531400539.03,32564,20.44,73984.3,10.59,3.63,4.23,0,*45
1531400540.23,32565,20.44,73986.8,10.59,2.89,3.59,0,*4B
1531400541.46,32566,20.44,73986.3,10.59,3.07,3.79,0,*4D
1531400542.69,32567,20.38,73986.3,10.59,2.77,3.49,0,*49
1531400543.9,32568,20.38,73984.0,10.59,3.19,3.89,0,*43
1531400545.09,32569,20.38,73986.0,10.57,3.55,4.27,0,*47
1531400546.3,32570,20.44,73986.5,10.59,3.71,4.49,0,*4F
1531400547.53,32571,20.44,73988.3,10.57,3.19,3.89,0,*45
1531400548.73,32572,20.44,73986.8,10.55,2.91,3.67,0,*45
1531400549.99,32573,20.38,73986.0,10.57,3.15,3.79,0,*44
1531400551.24,32574,20.38,73984.0,10.57,3.19,3.79,0,*4F
1531400552.5,32575,20.38,73980.8,10.53,3.23,3.97,0,*43
1531400553.73,32576,20.44,73982.8,10.53,3.23,3.93,0,*44
1531400554.97,32577,20.44,73986.3,10.53,3.23,3.93,0,*45
1531400556.23,32578,20.44,73988.5,10.53,3.15,4.01,0,*43
1531400557.46,32579,20.44,73984.8,10.53,3.37,4.07,0,*44
1531400558.71,32580,20.44,73986.5,10.53,3.49,4.31,0,*4E
1531400559.92,32581,20.44,73984.5,10.51,3.33,4.07,0,*45
1531400561.14,32582,20.44,73986.3,10.53,3.49,4.23,0,*4F
1531400562.37,32583,20.44,73986.8,10.53,3.41,4.23,0,*46
1531400563.6,32584,20.44,73986.8,10.53,3.41,4.19,0,*48
1531400564.8,32585,20.44,73984.0,10.51,3.45,4.19,0,*4F
1531400566.03,32586,20.44,73984.5,10.53,3.49,4.33,0,*4A
1531400567.23,32587,20.44,73986.0,10.53,3.29,4.11,0,*4D
1531400568.49,32588,20.38,73982.0,10.53,3.23,4.01,0,*49
1531400569.69,32589,20.44,73986.8,10.53,3.25,4.19,0,*47
1531400570.9,32590,20.38,73986.3,10.53,3.25,4.07,0,*40
1531400572.1,32591,20.38,73984.3,10.53,2.99,3.85,0,*4A
1531400573.28,32592,20.38,73986.5,10.51,2.99,3.93,0,*4C
1531400574.51,32593,20.38,73986.8,10.51,3.37,4.31,0,*47
1531400575.74,32594,20.44,73988.5,10.51,3.33,4.31,0,*44
1531400576.95,32595,20.44,73986.5,10.51,3.37,4.37,0,*47
1531400578.18,32596,20.44,73988.0,10.53,3.49,4.45,0,*4A
1531400579.44,32597,20.38,73984.8,10.53,3.23,4.31,0,*44
1531400580.64,32598,20.44,73988.8,10.51,3.19,4.19,0,*4A
1531400581.86,32599,20.44,73988.8,10.53,3.53,4.53,0,*49
1531400583.08,32600,20.44,73988.3,10.53,3.25,4.33,0,*4D
1531400584.31,32601,20.38,73986.5,10.53,3.41,4.45,0,*4F
1531400585.54,32602,20.44,73990.0,10.53,3.15,4.19,0,*44
1531400586.77,32603,20.44,73990.3,10.53,3.03,4.11,0,*4A
1531400587.98,32604,20.44,73988.5,10.51,2.95,4.05,0,*44
1531400589.19,32605,20.44,73990.0,10.53,2.65,3.81,0,*43
1531400590.39,32606,20.44,73988.0,10.51,2.77,3.93,0,*42
1531400591.63,32607,20.44,73986.8,10.53,3.15,4.33,0,*49
1531400592.86,32608,20.38,73984.0,10.51,3.37,4.59,0,*48
1531400594.07,32609,20.38,73984.8,10.53,3.25,4.41,0,*41
1531400595.27,32610,20.44,73984.8,10.51,3.33,4.49,0,*44
1531400596.51,32611,20.44,73988.0,10.51,3.11,4.31,0,*4A
1531400597.75,32612,20.44,73986.8,10.53,3.23,4.41,0,*4D
1531400598.92,32613,20.44,73986.5,10.51,2.99,4.27,0,*4E
1531400600.15,32614,20.38,73982.8,10.53,3.37,4.53,0,*4D
1531400601.39,32615,20.44,73986.3,10.53,3.15,4.33,0,*4A
1531400602.63,32616,20.44,73984.8,10.53,3.23,4.33,0,*4C
1531400603.87,32617,20.44,73986.8,10.53,3.15,4.33,0,*48
1531400605.11,32618,20.44,73984.0,10.53,3.15,4.33,0,*47
1531400606.34,32619,20.44,73986.3,10.55,3.49,4.79,0,*47
1531400607.52,32620,20.38,73980.5,10.55,3.29,4.49,0,*48
1531400608.73,32621,20.44,73984.0,10.55,3.41,4.49,0,*47
1531400609.96,32622,20.44,73984.3,10.57,2.91,4.05,0,*42
1531400611.14,32623,20.44,73984.0,10.55,3.29,4.49,0,*4B
1531400612.35,32624,20.44,73986.3,10.57,3.29,4.45,0,*42
1531400613.58,32625,20.44,73984.8,10.55,3.41,4.59,0,*42
1531400614.83,32626,20.44,73984.0,10.57,3.53,4.67,0,*4D
1531400616.09,32627,20.44,73986.8,10.57,3.53,4.71,0,*4B
1531400617.32,32628,20.44,73984.3,10.57,3.45,4.57,0,*47
1531400618.57,32629,20.38,73980.0,10.61,3.49,4.79,0,*43
1531400619.75,32630,20.38,73982.3,10.59,3.29,4.49,0,*45
1531400620.93,32631,20.44,73982.5,10.59,2.99,4.19,0,*4B
1531400622.14,32632,20.44,73986.8,10.59,3.19,4.37,0,*4D
1531400623.34,32633,20.44,73982.8,10.59,2.89,4.07,0,*47
1531400624.57,32634,20.44,73986.3,10.59,2.77,4.01,0,*47
1531400625.77,32635,20.44,73986.5,10.59,2.85,4.07,0,*4D
1531400626.98,32636,20.44,73984.8,10.59,2.47,3.81,0,*49
1531400628.21,32637,20.44,73986.8,10.57,2.85,4.15,0,*42
1531400629.41,32638,20.44,73986.3,10.57,2.91,4.11,0,*4C
1531400630.65,32639,20.44,73982.8,10.57,3.07,4.33,0,*43
1531400631.87,32640,20.44,73988.0,10.57,3.19,4.49,0,*4F
1531400633.11,32641,20.44,73982.5,10.57,3.03,4.33,0,*48
1531400634.35,32642,20.44,73984.0,10.57,3.07,4.33,0,*4F
1531400635.56,32643,20.38,73982.3,10.55,3.07,4.15,0,*48
1531400636.78,32644,20.38,73982.0,10.57,2.73,3.85,0,*41
1531400638.01,32645,20.38,73982.5,10.57,2.59,3.85,0,*48
1531400639.21,32646,20.44,73984.0,10.55,2.95,4.05,0,*46
1531400640.45,32647,20.44,73986.8,10.57,3.07,4.11,0,*4A
1531400641.67,32648,20.38,73982.3,10.57,2.95,4.01,0,*4E
1531400642.87,32649,20.44,73982.0,10.55,2.95,3.97,0,*45
1531400644.1,32650,20.44,73980.8,10.57,2.95,3.97,0,*4F
1531400645.31,32651,20.44,73984.0,10.55,3.15,4.15,0,*48
1531400646.56,32652,20.44,73984.3,10.57,3.19,4.05,0,*44
1531400647.77,32653,20.44,73986.8,10.55,3.07,4.11,0,*4D
1531400648.98,32654,20.44,73980.8,10.55,2.95,3.97,0,*49
1531400650.21,32655,20.44,73982.8,10.55,3.07,4.05,0,*4E
1531400651.44,32656,20.44,73980.5,10.55,2.73,3.75,0,*4F
1531400652.67,32657,20.44,73984.3,10.55,3.03,3.97,0,*44
1531400653.88,32658,20.44,73984.5,10.55,3.19,4.15,0,*4D
1531400655.08,32659,20.44,73982.8,10.55,3.19,4.15,0,*4C
1531400656.31,32660,20.44,73984.0,10.51,3.19,4.05,0,*43
1531400657.53,32661,20.44,73984.3,10.51,3.19,4.05,0,*42
1531400658.74,32662,20.44,73982.3,10.53,3.25,4.11,0,*49
1531400659.95,32663,20.44,73986.0,10.51,3.07,3.93,0,*47
1531400661.19,32664,20.38,73982.0,10.53,3.23,4.07,0,*4E
1531400662.39,32665,20.44,73984.0,10.53,3.25,4.11,0,*4E
1531400663.64,32666,20.44,73984.0,10.53,3.23,4.01,0,*4A
1531400664.85,32667,20.44,73982.5,10.51,3.37,4.15,0,*49
1531400666.11,32668,20.44,73980.5,10.53,3.03,3.75,0,*42
1531400667.34,32669,20.38,73980.8,10.51,3.23,3.97,0,*4F
1531400668.55,32670,20.44,73986.8,10.51,3.45,4.07,0,*49
1531400669.72,32671,20.44,73982.5,10.51,3.59,4.27,0,*47
1531400670.95,32672,20.44,73986.3,10.53,3.53,4.07,0,*4E
1531400672.2,32673,20.38,73980.8,10.53,3.53,4.01,0,*49
1531400673.4,32674,20.44,73982.5,10.53,3.81,4.23,0,*41
1531400674.61,32675,20.44,73984.3,10.51,3.81,4.31,0,*41
1531400675.84,32676,20.44,73984.3,10.53,3.81,4.31,0,*40
1531400677.07,32677,20.44,73982.8,10.53,3.63,4.01,0,*4E
1531400678.3,32678,20.38,73982.0,10.53,3.75,4.07,0,*40
1531400679.48,32679,20.44,73982.3,10.51,3.81,4.15,0,*4B
1531400680.69,32680,20.44,73982.8,10.53,4.19,4.45,0,*4C
1531400681.92,32681,20.38,73982.8,10.53,3.71,3.93,0,*48
1531400683.15,32682,20.44,73982.5,10.53,3.03,3.29,0,*4F
1531400684.41,32683,20.44,73986.5,10.53,3.23,3.37,0,*43
1531400685.61,32684,20.38,73982.3,10.51,3.19,3.25,0,*4C
1531400686.85,32685,20.44,73982.8,10.51,3.07,3.11,0,*45
1531400688.11,32686,20.44,73984.8,10.49,3.19,3.33,0,*40
1531400689.36,32687,20.44,73982.5,10.49,3.97,3.97,0,*49
1531400690.56,32688,20.44,73986.0,10.51,3.55,3.67,0,*4E
1531400691.73,32689,20.44,73980.8,10.51,3.55,3.55,0,*4E
1531400692.95,32690,20.44,73982.0,10.47,3.29,3.33,0,*4A
1531400694.19,32691,20.44,73982.8,10.47,3.41,3.45,0,*44
1531400695.42,32692,20.44,73980.3,10.49,3.33,3.25,0,*4A
1531400696.66,32693,20.44,73986.3,10.47,3.41,3.45,0,*46
1531400697.86,32694,20.44,73982.0,10.47,3.33,3.29,0,*4E
1531400699.08,32695,20.38,73980.8,10.47,3.67,3.63,0,*40
1531400700.29,32696,20.44,73984.3,10.47,3.75,3.63,0,*40
1531400701.53,32697,20.44,73986.8,10.47,3.45,3.41,0,*42
1531400702.77,32698,20.44,73982.0,10.47,3.41,3.33,0,*4C
1531400703.95,32699,20.44,73982.8,10.47,3.63,3.55,0,*4D
1531400705.18,32700,20.44,73982.8,10.45,3.85,3.75,0,*44
1531400706.38,32701,20.44,73982.3,10.41,3.63,3.59,0,*47
1531400707.6,32702,20.44,73984.5,10.45,3.63,3.53,0,*4A
1531400708.84,32703,20.44,73986.8,10.45,3.75,3.63,0,*4F
1531400710.09,32704,20.44,73986.8,10.45,3.67,3.67,0,*4F
1531400711.32,32705,20.44,73984.3,10.41,3.85,3.71,0,*41
1531400712.55,32706,20.44,73982.0,10.45,4.23,4.05,0,*49
1531400713.79,32707,20.44,73980.3,10.45,4.33,4.05,0,*49
1531400714.99,32708,20.44,73982.8,10.45,4.49,4.15,0,*4A
1531400716.17,32709,20.44,73982.5,10.47,4.27,3.93,0,*48
1531400717.38,32710,20.38,73980.8,10.47,3.89,3.53,0,*4F
1531400718.61,32711,20.44,73982.5,10.47,4.01,3.79,0,*41
1531400719.8,32712,20.44,73982.3,10.47,3.93,3.55,0,*40
1531400721.01,32713,20.44,73980.5,10.47,3.85,3.45,0,*47
1531400722.22,32714,20.44,73984.5,10.47,3.85,3.45,0,*40
1531400723.43,32715,20.38,73980.3,10.47,4.05,3.63,0,*4A
1531400724.64,32716,20.44,73982.0,10.47,3.85,3.33,0,*43
1531400725.89,32717,20.44,73982.8,10.47,3.75,3.15,0,*49
1531400727.15,32718,20.44,73982.8,10.41,3.15,2.59,0,*4F
1531400728.4,32719,20.44,73982.0,10.41,3.49,2.81,0,*42
1531400729.61,32720,20.44,73986.8,10.45,3.93,3.29,0,*48
1531400730.86,32721,20.44,73982.5,10.41,3.97,3.19,0,*4A
1531400732.06,32722,20.44,73980.5,10.41,3.59,2.91,0,*4A
1531400733.32,32723,20.44,73984.3,10.45,3.19,2.51,0,*47
1531400734.58,32724,20.44,73982.3,10.41,3.15,2.43,0,*4B
1531400735.81,32725,20.44,73984.3,10.41,3.25,2.55,0,*4E
1531400737.05,32726,20.38,73980.5,10.39,3.45,2.51,0,*40
1531400738.28,32727,20.44,73980.8,10.37,3.07,2.27,0,*48
1531400739.51,32728,20.44,73986.0,10.37,3.55,2.73,0,*41
1531400740.74,32729,20.38,73980.3,10.37,3.55,2.77,0,*44
1531400742.01,32730,20.44,73984.5,10.37,3.67,2.89,0,*4C
1531400743.21,32731,20.44,73982.8,10.37,3.81,2.99,0,*44
1531400744.42,32732,20.44,73982.8,10.37,3.55,2.61,0,*49
1531400745.65,32733,20.44,73980.3,10.35,3.55,2.73,0,*49
1531400746.9,32734,20.44,73982.3,10.35,3.53,2.69,0,*43
1531400748.15,32735,20.44,73982.3,10.35,3.11,2.21,0,*48
1531400749.4,32736,20.44,73980.3,10.35,3.33,2.47,0,*4B
1531400750.62,32737,20.38,73980.0,10.33,3.53,2.85,0,*44
1531400751.82,32738,20.44,73980.3,10.33,3.55,2.73,0,*44
1531400753.04,32739,20.44,73984.0,10.33,3.53,2.73,0,*43
1531400754.27,32740,20.44,73984.0,10.35,4.15,3.45,0,*4A
1531400755.47,32741,20.44,73982.5,10.33,4.49,3.79,0,*4B
1531400756.67,32742,20.44,73980.8,10.33,4.49,3.79,0,*48
1531400757.87,32743,20.44,73984.8,10.35,4.37,3.63,0,*4D
1531400759.1,32744,20.44,73982.0,10.35,4.37,3.67,0,*4E
1531400760.34,32745,20.44,73984.3,10.35,4.59,3.89,0,*47
1531400761.57,32746,20.44,73984.3,10.35,4.81,4.05,0,*42
1531400762.8,32747,20.44,73984.8,10.37,4.41,3.71,0,*49
1531400764.01,32748,20.44,73984.8,10.39,3.71,2.95,0,*47
1531400765.25,32749,20.44,73980.5,10.39,3.79,3.07,0,*44
1531400766.48,32750,20.44,73982.0,10.37,4.49,3.71,0,*47
1531400767.69,32751,20.44,73982.0,10.39,4.63,3.93,0,*4C
1531400768.9,32752,20.44,73982.8,10.39,4.85,4.05,0,*4F
1531400770.1,32753,20.44,73982.0,10.39,4.49,3.71,0,*4A
1531400771.31,32754,20.44,73980.0,10.39,4.63,3.93,0,*49
1531400772.56,32755,20.44,73980.0,10.41,4.67,4.01,0,*4F
1531400773.8,32756,20.44,73980.3,10.41,4.63,3.89,0,*4F
1531400775.0,32757,20.44,73982.5,10.45,4.45,3.85,0,*42
1531400776.22,32758,20.44,73982.5,10.45,4.49,3.79,0,*42
1531400777.42,32759,20.44,73984.5,10.45,4.57,3.89,0,*43
1531400778.66,32760,20.44,73982.0,10.47,4.67,4.05,0,*4B
1531400779.84,32761,20.44,73984.3,10.47,4.57,3.85,0,*46
1531400781.05,32762,20.44,73984.0,10.47,4.59,3.89,0,*47
1531400782.27,32763,20.44,73982.0,10.47,4.11,3.41,0,*4E
1531400783.48,32764,20.44,73982.8,10.47,4.11,3.45,0,*4D
1531400784.7,32765,20.44,73982.8,10.47,4.27,3.75,0,*4A
1531400785.91,32766,20.44,73982.8,10.47,4.23,3.67,0,*4E
1531400787.12,32767,20.44,73982.5,10.47,4.33,3.67,0,*4E
1531400788.33,32768,20.44,73982.3,10.47,4.37,3.75,0,*46
1531400789.57,32769,20.44,73980.3,10.49,4.37,3.79,0,*45
1531400790.78,32770,20.44,73980.5,10.49,4.53,3.89,0,*40
1531400791.98,32771,20.44,73980.3,10.49,4.49,3.89,0,*4A
1531400793.24,32772,20.44,73984.8,10.49,4.31,3.79,0,*49
1531400794.42,32773,20.44,73984.8,10.47,4.45,3.85,0,*46
1531400795.65,32774,20.44,73980.3,10.49,4.53,3.97,0,*4B
1531400796.88,32775,20.44,73982.0,10.49,4.75,4.19,0,*4F
1531400798.1,32776,20.44,73984.3,10.49,4.79,4.27,0,*4D
1531400799.33,32777,20.44,73984.0,10.49,4.75,4.15,0,*41
1531400800.51,32778,20.44,73984.8,10.51,4.49,3.81,0,*42
1531400801.71,32779,20.44,73986.0,10.53,4.41,3.85,0,*4D
1531400802.92,32780,20.44,73986.0,10.51,4.53,3.97,0,*49
1531400804.15,32781,20.44,73984.8,10.51,4.59,4.05,0,*4E
1531400805.34,32782,20.44,73980.8,10.51,4.37,3.81,0,*4E
1531400806.57,32783,20.44,73982.8,10.51,3.97,3.37,0,*4F
1531400807.82,32784,20.44,73982.0,10.49,4.59,3.97,0,*4E
1531400809.03,32785,20.44,73984.8,10.51,4.75,4.27,0,*44
1531400810.23,32786,20.44,73984.5,10.51,4.71,4.27,0,*43
1531400811.44,32787,20.44,73984.8,10.51,4.71,4.19,0,*4F
1531400812.65,32788,20.44,73986.8,10.53,4.89,4.41,0,*48
1531400813.88,32789,20.44,73982.8,10.53,4.93,4.45,0,*46
1531400815.11,32790,20.44,73982.5,10.53,4.93,4.45,0,*4E
1531400816.37,32791,20.44,73982.8,10.53,4.79,4.31,0,*48
1531400817.58,32792,20.44,73986.0,10.55,4.23,3.79,0,*49
1531400818.76,32793,20.44,73984.3,10.55,4.37,3.85,0,*4E
1531400819.98,32794,20.44,73980.5,10.53,4.01,3.63,0,*42
1531400821.22,32795,20.44,73984.3,10.53,4.31,3.81,0,*4C
1531400822.43,32796,20.44,73984.8,10.51,4.31,3.81,0,*4D
1531400823.62,32797,20.44,73984.3,10.51,4.37,3.81,0,*4A
1531400824.82,32798,20.44,73980.5,10.51,4.19,3.67,0,*41
1531400826.02,32799,20.44,73986.3,10.53,4.45,3.85,0,*47
1531400827.25,32800,20.44,73986.0,10.51,4.31,3.79,0,*4A
1531400828.48,32801,20.44,73986.3,10.53,4.67,4.07,0,*44
1531400829.71,32802,20.44,73986.0,10.53,4.23,3.75,0,*45
1531400830.93,32803,20.44,73982.3,10.51,3.93,3.45,0,*49
1531400832.16,32804,20.44,73986.3,10.53,4.11,3.71,0,*46
1531400833.34,32805,20.44,73984.8,10.51,4.49,3.89,0,*4F
1531400834.54,32806,20.44,73984.3,10.53,4.45,3.93,0,*49
1531400835.8,32807,20.44,73984.0,10.53,4.63,4.01,0,*40
1531400837.0,32808,20.44,73982.0,10.53,4.53,3.93,0,*40
1531400838.18,32809,20.44,73982.5,10.51,4.33,3.85,0,*42
1531400839.39,32810,20.44,73984.0,10.53,4.45,3.93,0,*4E
1531400840.59,32811,20.44,73982.5,10.53,4.45,3.93,0,*4F
1531400841.78,32812,20.44,73984.3,10.51,4.53,3.89,0,*42
1531400843.01,32813,20.44,73986.5,10.51,4.59,4.05,0,*4A
1531400844.19,32814,20.44,73990.3,10.51,4.49,3.81,0,*47
1531400845.45,32815,20.44,73982.0,10.53,4.31,3.75,0,*40
1531400846.66,32816,20.44,73986.0,10.53,4.33,3.81,0,*4A
1531400847.87,32817,20.44,73984.3,10.51,3.93,3.45,0,*4C
1531400849.1,32818,20.44,73984.3,10.51,3.97,3.37,0,*42
1531400850.31,32819,20.44,73984.8,10.51,3.93,3.45,0,*42
1531400851.49,32820,20.44,73984.0,10.51,4.07,3.59,0,*4F
1531400852.7,32821,20.44,73986.0,10.51,4.19,3.67,0,*4C
1531400853.93,32822,20.44,73984.8,10.49,4.15,3.67,0,*4A
1531400855.14,32823,20.44,73984.3,10.49,4.49,3.89,0,*42
1531400856.37,32824,20.44,73988.3,10.49,4.27,3.79,0,*42
1531400857.6,32825,20.44,73984.8,10.51,4.31,3.79,0,*4D
1531400858.84,32826,20.44,73982.5,10.47,4.31,3.79,0,*49
1531400860.1,32827,20.44,73986.0,10.49,4.63,4.31,0,*4A
1531400861.32,32828,20.44,73984.5,10.49,5.07,4.59,0,*48
1531400862.58,32829,20.44,73986.5,10.49,4.79,4.31,0,*4F
1531400863.81,32830,20.44,73984.0,10.49,4.05,3.55,0,*49
1531400865.05,32831,20.44,73984.5,10.49,4.31,3.81,0,*46
1531400866.26,32832,20.44,73986.0,10.47,4.45,4.05,0,*43
1531400867.46,32833,20.44,73986.0,10.53,4.57,4.11,0,*41
1531400868.69,32834,20.44,73984.5,10.49,4.49,3.97,0,*4B
1531400869.91,32835,20.44,73986.3,10.49,4.19,3.79,0,*4F
1531400871.15,32836,20.44,73986.3,10.49,4.75,4.37,0,*4B
1531400872.36,32837,20.44,73984.3,10.51,4.97,4.53,0,*4D
1531400873.62,32838,20.44,73984.5,10.49,4.63,4.31,0,*44
1531400874.8,32839,20.44,73984.5,10.51,4.53,4.27,0,*48
1531400876.01,32840,20.44,73984.0,10.51,4.79,4.41,0,*4E
1531400877.21,32841,20.44,73984.8,10.51,4.79,4.41,0,*4F
1531400878.43,32842,20.44,73984.5,10.51,4.71,4.41,0,*44
1531400879.64,32843,20.44,73986.0,10.51,4.63,4.37,0,*47
1531400880.87,32844,20.44,73986.0,10.53,4.63,4.33,0,*46
1531400882.13,32845,20.44,73986.5,10.53,4.63,4.31,0,*45
1531400883.33,32846,20.44,73986.5,10.53,4.57,4.23,0,*42
1531400884.54,32847,20.44,73984.3,10.53,4.53,4.07,0,*41
1531400885.73,32848,20.44,73982.5,10.51,4.37,3.93,0,*44
1531400886.94,32849,20.44,73984.5,10.53,4.33,3.93,0,*43
1531400888.17,32850,20.44,73984.5,10.53,4.63,4.23,0,*42
1531400889.37,32851,20.44,73984.8,10.53,4.89,4.53,0,*40
1531400890.61,32852,20.44,73984.8,10.53,5.01,4.57,0,*46
1531400891.84,32853,20.44,73986.3,10.53,5.05,4.57,0,*43
1531400893.05,32854,20.44,73984.8,10.53,4.89,4.53,0,*45
1531400894.25,32855,20.44,73990.0,10.53,5.23,4.89,0,*42
1531400895.48,32856,20.44,73984.0,10.57,5.07,4.71,0,*44
1531400896.7,32857,20.44,73986.8,10.55,5.19,4.79,0,*40
1531400897.9,32858,20.44,73984.0,10.55,4.67,4.15,0,*4D
1531400899.1,32859,20.44,73986.8,10.55,4.45,3.97,0,*41
1531400900.3,32860,20.44,73986.5,10.59,4.49,4.01,0,*43
1531400901.54,32861,20.44,73984.5,10.57,4.71,4.33,0,*46
1531400902.75,32862,20.44,73986.0,10.55,4.79,4.37,0,*4B
1531400903.98,32863,20.44,73986.0,10.55,4.59,4.05,0,*49
1531400905.22,32864,20.44,73984.5,10.57,4.71,4.37,0,*47
1531400906.43,32865,20.44,73988.0,10.55,5.07,4.59,0,*4C
1531400907.66,32866,20.44,73984.8,10.57,4.79,4.37,0,*4D
1531400908.87,32867,20.44,73986.3,10.55,4.79,4.33,0,*4A
1531400910.07,32868,20.44,73986.8,10.57,4.81,4.37,0,*44
1531400911.28,32869,20.44,73984.8,10.59,4.53,4.01,0,*41
1531400912.47,32870,20.44,73984.3,10.59,4.37,3.89,0,*4C
1531400913.67,32871,20.44,73986.8,10.57,4.57,4.23,0,*42
1531400914.88,32872,20.44,73986.8,10.55,4.71,4.37,0,*42
1531400916.11,32873,20.44,73986.3,10.57,5.07,4.67,0,*44
1531400917.34,32874,20.44,73986.5,10.57,5.29,4.93,0,*44
1531400918.54,32875,20.44,73986.0,10.59,5.29,4.97,0,*4F
1531400919.8,32876,20.44,73984.8,10.61,4.75,4.31,0,*43
1531400921.01,32877,20.44,73984.3,10.59,4.75,4.33,0,*4B
1531400922.22,32878,20.44,73984.3,10.59,5.33,4.97,0,*49